Terminal Aerodrome Forecast
Issued by NWS St Louis, MO

Home | Current Version | Previous Version | Text Only | Print | Product List | Glossary On
Versions: 1 2 3 4 5 6 7 8 9 10 11 12 13 14 15 16 17 18 19 20 21 22 23
000
FTUS43 KLSX 201100
TAFCOU
TAF
KCOU 201139Z 2012/2112 16004KT 3SM BR OVC004
     FM201600 17006KT 5SM BR OVC007
     FM201900 20006KT P6SM OVC010
     FM210200 17005KT P6SM OVC020=

USA.gov is the U.S. government's official web portal to all federal, state and local government web resources and services.